Time,TemperatureF,DewpointF,PressureIn,WindDirection,WindDirectionDegrees,WindSpeedMPH,WindSpeedGustMPH,Humidity,HourlyPrecipIn,Conditions,Clouds,dailyrainin,SolarRadiationWatts/m^2,SoftwareType,DateUTC
2013-06-15 00:01:00,59.0,28.0,-100.00,NW,316,17.0,20.0,30,0.00,,,0.00,0.000000,,2013-06-15 07:01:00,
2013-06-15 00:11:00,59.0,28.0,-100.00,NW,316,17.0,20.0,30,0.00,,,0.00,0.000000,,2013-06-15 07:11:00,
2013-06-15 00:23:00,59.0,28.0,-100.00,NW,316,17.0,20.0,30,0.00,,,0.00,0.000000,,2013-06-15 07:23:00,
2013-06-15 00:53:00,60.0,28.0,-100.00,NW,318,18.0,20.0,30,0.00,,,0.00,0.000000,,2013-06-15 07:53:00,
2013-06-15 01:02:00,60.0,28.0,-100.00,NW,318,18.0,20.0,30,0.00,,,0.00,0.000000,,2013-06-15 08:02:00,
2013-06-15 01:11:00,60.0,28.0,-100.00,NW,318,18.0,20.0,30,0.00,,,0.00,0.000000,,2013-06-15 08:11:00,
2013-06-15 01:22:00,60.0,28.0,-100.00,NW,318,18.0,20.0,30,0.00,,,0.00,0.000000,,2013-06-15 08:22:00,
2013-06-15 01:53:00,59.0,31.0,-100.00,NW,322,22.0,22.0,34,0.00,,,0.00,0.000000,,2013-06-15 08:53:00,
2013-06-15 02:02:00,59.0,31.0,-100.00,NW,322,22.0,22.0,34,0.00,,,0.00,0.000000,,2013-06-15 09:02:00,
2013-06-15 02:12:00,59.0,31.0,-100.00,NW,322,22.0,22.0,34,0.00,,,0.00,0.000000,,2013-06-15 09:12:00,
2013-06-15 02:22:00,59.0,31.0,-100.00,NW,322,22.0,22.0,34,0.00,,,0.00,0.000000,,2013-06-15 09:22:00,
2013-06-15 02:52:00,55.0,30.0,-100.00,NW,322,23.0,26.0,38,0.00,,,0.00,0.000000,,2013-06-15 09:52:00,
2013-06-15 03:02:00,55.0,30.0,-100.00,NW,322,23.0,26.0,38,0.00,,,0.00,0.000000,,2013-06-15 10:02:00,
2013-06-15 03:11:00,55.0,30.0,-100.00,NW,322,23.0,26.0,38,0.00,,,0.00,0.000000,,2013-06-15 10:11:00,
2013-06-15 03:23:00,55.0,30.0,-100.00,NW,322,23.0,26.0,38,0.00,,,0.00,0.000000,,2013-06-15 10:23:00,
2013-06-15 03:53:00,55.0,29.0,-100.00,NW,318,21.0,27.0,36,0.00,,,0.00,0.000000,,2013-06-15 10:53:00,
2013-06-15 04:01:00,55.0,29.0,-100.00,NW,318,21.0,27.0,36,0.00,,,0.00,0.000000,,2013-06-15 11:01:00,
2013-06-15 04:11:00,55.0,29.0,-100.00,NW,318,21.0,27.0,36,0.00,,,0.00,0.000000,,2013-06-15 11:11:00,
2013-06-15 04:22:00,55.0,29.0,-100.00,NW,318,21.0,27.0,36,0.00,,,0.00,0.000000,,2013-06-15 11:22:00,
2013-06-15 04:53:00,53.0,26.0,-100.00,NW,322,23.0,27.0,35,0.00,,,-99.99,0.000000,,2013-06-15 11:53:00,
2013-06-15 05:01:00,53.0,26.0,-100.00,NW,322,23.0,27.0,35,0.00,,,-99.99,0.000000,,2013-06-15 12:01:00,
2013-06-15 05:11:00,53.0,26.0,-100.00,NW,322,23.0,27.0,35,0.00,,,-99.99,0.000000,,2013-06-15 12:11:00,
2013-06-15 05:22:00,53.0,26.0,-100.00,NW,322,23.0,27.0,35,0.00,,,-99.99,0.000000,,2013-06-15 12:22:00,
2013-06-15 05:52:00,54.0,26.0,-100.00,NW,325,21.0,26.0,34,0.00,,,0.00,0.000000,,2013-06-15 12:52:00,
2013-06-15 06:02:00,54.0,26.0,-100.00,NW,325,21.0,26.0,34,0.00,,,0.00,0.000000,,2013-06-15 13:02:00,
2013-06-15 06:11:00,54.0,26.0,-100.00,NW,325,21.0,26.0,34,0.00,,,0.00,0.000000,,2013-06-15 13:11:00,
2013-06-15 06:22:00,54.0,26.0,-100.00,NW,325,21.0,26.0,34,0.00,,,0.00,0.000000,,2013-06-15 13:22:00,
2013-06-15 06:53:00,54.0,26.0,-100.00,NW,322,20.0,26.0,34,0.00,,,0.00,0.000000,,2013-06-15 13:53:00,
2013-06-15 07:01:00,54.0,26.0,-100.00,NW,322,20.0,26.0,34,0.00,,,0.00,0.000000,,2013-06-15 14:01:00,
2013-06-15 07:12:00,54.0,26.0,-100.00,NW,322,20.0,26.0,34,0.00,,,0.00,0.000000,,2013-06-15 14:12:00,
2013-06-15 07:22:00,54.0,26.0,-100.00,NW,322,20.0,26.0,34,0.00,,,0.00,0.000000,,2013-06-15 14:22:00,
2013-06-15 07:54:00,53.0,26.0,-100.00,NW,322,20.0,23.0,35,0.00,,,-99.99,56.000000,,2013-06-15 14:54:00,
2013-06-15 08:01:00,53.0,26.0,-100.00,NW,322,20.0,23.0,35,0.00,,,-99.99,56.000000,,2013-06-15 15:01:00,
2013-06-15 08:11:00,53.0,26.0,-100.00,NW,322,20.0,23.0,35,0.00,,,-99.99,56.000000,,2013-06-15 15:11:00,
2013-06-15 08:22:00,53.0,26.0,-100.00,NW,322,20.0,23.0,35,0.00,,,-99.99,56.000000,,2013-06-15 15:22:00,
2013-06-15 08:53:00,55.0,24.0,-100.00,NW,322,16.0,24.0,30,0.00,,,-99.99,297.000000,,2013-06-15 15:53:00,
2013-06-15 09:01:00,55.0,24.0,-100.00,NW,322,16.0,24.0,30,0.00,,,-99.99,297.000000,,2013-06-15 16:01:00,
2013-06-15 09:11:00,55.0,24.0,-100.00,NW,322,16.0,24.0,30,0.00,,,-99.99,297.000000,,2013-06-15 16:11:00,
2013-06-15 09:22:00,55.0,24.0,-100.00,NW,322,16.0,24.0,30,0.00,,,-99.99,297.000000,,2013-06-15 16:22:00,
2013-06-15 09:53:00,57.0,21.0,-100.00,NNW,329,12.0,22.0,24,0.00,,,0.00,563.000000,,2013-06-15 16:53:00,
2013-06-15 10:01:00,57.0,21.0,-100.00,NNW,329,12.0,22.0,24,0.00,,,0.00,563.000000,,2013-06-15 17:01:00,
2013-06-15 10:11:00,57.0,21.0,-100.00,NNW,329,12.0,22.0,24,0.00,,,0.00,563.000000,,2013-06-15 17:11:00,
2013-06-15 10:21:00,57.0,21.0,-100.00,NNW,329,12.0,22.0,24,0.00,,,0.00,563.000000,,2013-06-15 17:21:00,
2013-06-15 10:52:00,61.0,17.0,-100.00,NW,312,9.0,18.0,18,-99.99,,,0.00,817.000000,,2013-06-15 17:52:00,
2013-06-15 11:01:00,61.0,17.0,-100.00,NW,312,9.0,18.0,18,-99.99,,,0.00,817.000000,,2013-06-15 18:01:00,
2013-06-15 11:11:00,61.0,17.0,-100.00,NW,312,9.0,18.0,18,-99.99,,,0.00,817.000000,,2013-06-15 18:11:00,
2013-06-15 11:22:00,61.0,17.0,-100.00,NW,312,9.0,18.0,18,-99.99,,,0.00,817.000000,,2013-06-15 18:22:00,
2013-06-15 11:53:00,65.0,11.0,-100.00,WNW,284,6.0,16.0,12,0.00,,,0.00,1039.000000,,2013-06-15 18:53:00,
2013-06-15 12:01:00,65.0,11.0,-100.00,WNW,284,6.0,16.0,12,0.00,,,0.00,1039.000000,,2013-06-15 19:01:00,
2013-06-15 12:11:00,65.0,11.0,-100.00,WNW,284,6.0,16.0,12,0.00,,,0.00,1039.000000,,2013-06-15 19:11:00,
2013-06-15 12:22:00,65.0,11.0,-100.00,WNW,284,6.0,16.0,12,0.00,,,0.00,1039.000000,,2013-06-15 19:22:00,
2013-06-15 12:53:00,73.0,13.0,-100.00,West,268,5.0,13.0,10,0.00,,,0.00,1207.000000,,2013-06-15 19:53:00,
2013-06-15 13:02:00,73.0,13.0,-100.00,West,268,5.0,13.0,10,0.00,,,0.00,1207.000000,,2013-06-15 20:02:00,
2013-06-15 13:11:00,73.0,13.0,-100.00,West,268,5.0,13.0,10,0.00,,,0.00,1207.000000,,2013-06-15 20:11:00,
2013-06-15 13:22:00,73.0,13.0,-100.00,West,268,5.0,13.0,10,0.00,,,0.00,1207.000000,,2013-06-15 20:22:00,
2013-06-15 13:53:00,75.0,12.0,-100.00,West,275,10.0,13.0,9,0.00,,,0.00,1303.000000,,2013-06-15 20:53:00,
2013-06-15 14:01:00,75.0,12.0,-100.00,West,275,10.0,13.0,9,0.00,,,0.00,1303.000000,,2013-06-15 21:01:00,
2013-06-15 14:11:00,75.0,12.0,-100.00,West,275,10.0,13.0,9,0.00,,,0.00,1303.000000,,2013-06-15 21:11:00,
2013-06-15 14:22:00,75.0,12.0,-100.00,West,275,10.0,13.0,9,0.00,,,0.00,1303.000000,,2013-06-15 21:22:00,
2013-06-15 14:53:00,76.0,10.0,-100.00,East,97,7.0,18.0,8,0.00,,,0.00,1327.000000,,2013-06-15 21:53:00,
2013-06-15 15:01:00,76.0,10.0,-100.00,East,97,7.0,18.0,8,0.00,,,0.00,1327.000000,,2013-06-15 22:01:00,
2013-06-15 15:11:00,76.0,10.0,-100.00,East,97,7.0,18.0,8,0.00,,,0.00,1327.000000,,2013-06-15 22:11:00,
2013-06-15 15:22:00,76.0,10.0,-100.00,East,97,7.0,18.0,8,0.00,,,0.00,1327.000000,,2013-06-15 22:22:00,
2013-06-15 15:53:00,78.0,21.0,-100.00,NW,313,12.0,20.0,12,0.00,,,0.00,1283.000000,,2013-06-15 22:53:00,
2013-06-15 16:01:00,78.0,21.0,-100.00,NW,313,12.0,20.0,12,0.00,,,0.00,1283.000000,,2013-06-15 23:01:00,
2013-06-15 16:11:00,78.0,21.0,-100.00,NW,313,12.0,20.0,12,0.00,,,0.00,1283.000000,,2013-06-15 23:11:00,
2013-06-15 16:22:00,78.0,21.0,-100.00,NW,313,12.0,20.0,12,0.00,,,0.00,1283.000000,,2013-06-15 23:22:00,
2013-06-15 16:53:00,77.0,18.0,-100.00,NW,311,13.0,24.0,11,0.00,,,0.00,1164.000000,,2013-06-15 23:53:00,
2013-06-15 17:01:00,77.0,18.0,-100.00,NW,311,13.0,24.0,11,0.00,,,0.00,1164.000000,,2013-06-16 00:01:00,
2013-06-15 17:11:00,77.0,18.0,-100.00,NW,311,13.0,24.0,11,0.00,,,0.00,1164.000000,,2013-06-16 00:11:00,
2013-06-15 17:22:00,77.0,18.0,-100.00,NW,311,13.0,24.0,11,0.00,,,0.00,1164.000000,,2013-06-16 00:22:00,
2013-06-15 17:52:00,75.0,21.0,-100.00,West,260,17.0,24.0,13,0.00,,,0.00,987.000000,,2013-06-16 00:52:00,
2013-06-15 18:01:00,75.0,21.0,-100.00,West,260,17.0,24.0,13,0.00,,,0.00,987.000000,,2013-06-16 01:01:00,
2013-06-15 18:11:00,75.0,21.0,-100.00,West,260,17.0,24.0,13,0.00,,,0.00,987.000000,,2013-06-16 01:11:00,
2013-06-15 18:22:00,75.0,21.0,-100.00,West,260,17.0,24.0,13,0.00,,,0.00,987.000000,,2013-06-16 01:22:00,
2013-06-15 18:53:00,74.0,22.0,-100.00,WNW,285,19.0,30.0,14,-99.99,,,0.00,762.000000,,2013-06-16 01:53:00,
2013-06-15 19:01:00,74.0,22.0,-100.00,WNW,285,19.0,30.0,14,-99.99,,,0.00,762.000000,,2013-06-16 02:01:00,
2013-06-15 19:12:00,74.0,22.0,-100.00,WNW,285,19.0,30.0,14,-99.99,,,0.00,762.000000,,2013-06-16 02:12:00,
2013-06-15 19:22:00,74.0,22.0,-100.00,WNW,285,19.0,30.0,14,-99.99,,,0.00,762.000000,,2013-06-16 02:22:00,
2013-06-15 19:53:00,72.0,25.0,-100.00,WNW,284,16.0,30.0,17,-99.99,,,0.00,312.000000,,2013-06-16 02:53:00,
2013-06-15 20:02:00,72.0,25.0,-100.00,WNW,284,16.0,30.0,17,-99.99,,,0.00,312.000000,,2013-06-16 03:02:00,
2013-06-15 20:11:00,72.0,25.0,-100.00,WNW,284,16.0,30.0,17,-99.99,,,0.00,312.000000,,2013-06-16 03:11:00,
2013-06-15 20:22:00,72.0,25.0,-100.00,WNW,284,16.0,30.0,17,-99.99,,,0.00,312.000000,,2013-06-16 03:22:00,
2013-06-15 20:53:00,68.0,24.0,-100.00,West,280,21.0,28.0,19,0.00,,,0.00,83.000000,,2013-06-16 03:53:00,
2013-06-15 21:01:00,68.0,24.0,-100.00,West,280,21.0,28.0,19,0.00,,,0.00,83.000000,,2013-06-16 04:01:00,
2013-06-15 21:12:00,68.0,24.0,-100.00,West,280,21.0,28.0,19,0.00,,,0.00,83.000000,,2013-06-16 04:12:00,
2013-06-15 21:23:00,68.0,24.0,-100.00,West,280,21.0,28.0,19,0.00,,,0.00,83.000000,,2013-06-16 04:23:00,
2013-06-15 21:53:00,63.0,21.0,-100.00,WNW,288,24.0,31.0,20,-99.99,,,0.00,36.000000,,2013-06-16 04:53:00,
2013-06-15 22:01:00,63.0,21.0,-100.00,WNW,288,24.0,31.0,20,-99.99,,,0.00,36.000000,,2013-06-16 05:01:00,
2013-06-15 22:11:00,63.0,21.0,-100.00,WNW,288,24.0,31.0,20,-99.99,,,0.00,36.000000,,2013-06-16 05:11:00,
2013-06-15 22:22:00,63.0,21.0,-100.00,WNW,288,24.0,31.0,20,-99.99,,,0.00,36.000000,,2013-06-16 05:22:00,
2013-06-15 22:52:00,61.0,21.0,-100.00,WNW,286,24.0,37.0,21,-99.99,,,0.00,0.000000,,2013-06-16 05:52:00,
2013-06-15 23:01:00,61.0,21.0,-100.00,WNW,286,24.0,37.0,21,-99.99,,,0.00,0.000000,,2013-06-16 06:01:00,
2013-06-15 23:11:00,61.0,21.0,-100.00,WNW,286,24.0,37.0,21,-99.99,,,0.00,0.000000,,2013-06-16 06:11:00,
2013-06-15 23:22:00,61.0,21.0,-100.00,WNW,286,24.0,37.0,21,-99.99,,,0.00,0.000000,,2013-06-16 06:22:00,
2013-06-15 23:52:00,60.0,28.0,-100.00,WNW,301,19.0,35.0,30,-99.99,,,0.00,0.000000,,2013-06-16 06:52:00,